Time,TemperatureF,DewpointF,PressureIn,WindDirection,WindDirectionDegrees,WindSpeedMPH,WindSpeedGustMPH,Humidity,HourlyPrecipIn,Conditions,Clouds,dailyrainin,SoftwareType,DateUTC
2013-05-17 00:12:00,59.7,47.1,29.72,NW,315,0.0,-999.0,63,-99.99,,,0.00,Acu-Link.com,2013-05-17 04:12:00,
2013-05-17 00:27:00,58.8,48.7,29.72,NW,315,0.0,-999.0,69,-99.99,,,0.00,Acu-Link.com,2013-05-17 04:27:00,
2013-05-17 00:42:00,58.3,48.6,29.72,SSE,157,0.0,-999.0,70,-99.99,,,0.00,Acu-Link.com,2013-05-17 04:42:00,
2013-05-17 00:57:00,57.4,45.7,29.73,NNW,337,1.1,-999.0,65,-99.99,,,0.00,Acu-Link.com,2013-05-17 04:57:00,
2013-05-17 01:12:00,60.3,42.1,29.73,NNE,22,5.8,-999.0,51,-99.99,,,0.00,Acu-Link.com,2013-05-17 05:12:00,
2013-05-17 01:28:00,62.6,41.5,29.73,WNW,292,2.7,-999.0,46,-99.99,,,0.00,Acu-Link.com,2013-05-17 05:28:00,
2013-05-17 01:43:00,62.4,41.3,29.74,North,0,2.7,-999.0,46,-99.99,,,0.00,Acu-Link.com,2013-05-17 05:43:00,
2013-05-17 01:58:00,62.2,41.2,29.74,East,90,1.7,-999.0,46,-99.99,,,0.00,Acu-Link.com,2013-05-17 05:58:00,
2013-05-17 02:13:00,61.3,41.4,29.75,South,180,0.0,-999.0,48,-99.99,,,0.00,Acu-Link.com,2013-05-17 06:13:00,
2013-05-17 02:28:00,60.4,41.2,29.76,ESE,112,0.0,-999.0,49,-99.99,,,0.00,Acu-Link.com,2013-05-17 06:28:00,
2013-05-17 02:43:00,58.6,43.4,29.77,NNW,337,1.7,-999.0,57,-99.99,,,0.00,Acu-Link.com,2013-05-17 06:43:00,
2013-05-17 02:58:00,57.6,44.3,29.78,SE,135,0.0,-999.0,61,-99.99,,,0.00,Acu-Link.com,2013-05-17 06:58:00,
2013-05-17 03:13:00,56.8,44.3,29.79,NNE,22,2.2,-999.0,63,-99.99,,,0.00,Acu-Link.com,2013-05-17 07:13:00,
2013-05-17 03:28:00,57.0,44.5,29.79,NNW,337,1.7,-999.0,63,-99.99,,,0.00,Acu-Link.com,2013-05-17 07:28:00,
2013-05-17 03:43:00,56.7,45.5,29.80,NW,315,2.2,-999.0,66,-99.99,,,0.00,Acu-Link.com,2013-05-17 07:43:00,
2013-05-17 03:59:00,56.7,45.5,29.81,NNE,22,2.2,-999.0,66,-99.99,,,0.00,Acu-Link.com,2013-05-17 07:59:00,
2013-05-17 04:15:00,56.1,46.1,29.81,WNW,292,1.7,-999.0,69,-99.99,,,0.00,Acu-Link.com,2013-05-17 08:15:00,
2013-05-17 04:30:00,55.4,46.2,29.82,NNW,337,1.7,-999.0,71,-99.99,,,0.00,Acu-Link.com,2013-05-17 08:30:00,
2013-05-17 04:45:00,54.3,46.5,29.82,NW,315,3.7,-999.0,75,-99.99,,,0.00,Acu-Link.com,2013-05-17 08:45:00,
2013-05-17 05:00:00,54.5,46.7,29.83,NNW,337,1.7,-999.0,75,-99.99,,,0.00,Acu-Link.com,2013-05-17 09:00:00,
2013-05-17 05:15:00,53.6,47.9,29.84,NNW,337,1.7,-999.0,81,-99.99,,,0.00,Acu-Link.com,2013-05-17 09:15:00,
2013-05-17 05:30:00,52.7,47.0,29.86,NNE,22,3.2,-999.0,81,-99.99,,,0.00,Acu-Link.com,2013-05-17 09:30:00,
2013-05-17 05:46:00,54.0,44.4,29.86,NNE,22,2.2,-999.0,70,-99.99,,,0.00,Acu-Link.com,2013-05-17 09:46:00,
2013-05-17 06:01:00,54.7,44.3,29.87,ESE,112,3.2,-999.0,68,-99.99,,,0.00,Acu-Link.com,2013-05-17 10:01:00,
2013-05-17 06:16:00,55.4,44.6,29.88,NE,45,4.7,-999.0,67,-99.99,,,0.00,Acu-Link.com,2013-05-17 10:16:00,
2013-05-17 06:31:00,55.9,44.7,29.88,North,0,3.7,-999.0,66,-99.99,,,0.00,Acu-Link.com,2013-05-17 10:31:00,
2013-05-17 06:46:00,56.7,44.7,29.88,NNW,337,7.8,-999.0,64,-99.99,,,0.00,Acu-Link.com,2013-05-17 10:46:00,
2013-05-17 07:01:00,57.0,43.7,29.88,NNE,22,9.4,-999.0,61,-99.99,,,0.00,Acu-Link.com,2013-05-17 11:01:00,
2013-05-17 07:16:00,57.2,43.4,29.88,NE,45,9.4,-999.0,60,-99.99,,,0.00,Acu-Link.com,2013-05-17 11:16:00,
2013-05-17 07:31:00,57.2,43.4,29.89,NNW,337,4.7,-999.0,60,-99.99,,,0.00,Acu-Link.com,2013-05-17 11:31:00,
2013-05-17 07:46:00,57.7,44.8,29.92,NW,315,4.7,-999.0,62,-99.99,,,0.00,Acu-Link.com,2013-05-17 11:46:00,
2013-05-17 08:02:00,58.3,44.5,29.93,WNW,292,5.8,-999.0,60,-99.99,,,0.00,Acu-Link.com,2013-05-17 12:02:00,
2013-05-17 08:17:00,59.4,47.6,29.94,ENE,67,2.2,-999.0,65,-99.99,,,0.00,Acu-Link.com,2013-05-17 12:17:00,
2013-05-17 08:32:00,58.3,47.4,29.94,WNW,292,2.2,-999.0,67,-99.99,,,0.00,Acu-Link.com,2013-05-17 12:32:00,
2013-05-17 08:47:00,57.6,45.9,29.95,NW,315,3.7,-999.0,65,-99.99,,,0.00,Acu-Link.com,2013-05-17 12:47:00,
2013-05-17 09:02:00,57.6,45.9,29.96,West,270,1.7,-999.0,65,-99.99,,,0.00,Acu-Link.com,2013-05-17 13:02:00,
2013-05-17 09:17:00,58.8,46.2,29.97,WSW,247,5.8,-999.0,63,-99.99,,,0.00,Acu-Link.com,2013-05-17 13:17:00,
2013-05-17 09:32:00,58.8,46.2,29.97,North,0,1.1,-999.0,63,-99.99,,,0.00,Acu-Link.com,2013-05-17 13:32:00,
2013-05-17 09:47:00,60.3,47.2,29.96,NW,315,2.2,-999.0,62,-99.99,,,0.00,Acu-Link.com,2013-05-17 13:47:00,
2013-05-17 10:02:00,60.4,47.7,29.97,NNW,337,1.7,-999.0,63,-99.99,,,0.00,Acu-Link.com,2013-05-17 14:02:00,
2013-05-17 10:18:00,60.4,46.4,29.97,NNW,337,2.7,-999.0,60,-99.99,,,0.00,Acu-Link.com,2013-05-17 14:18:00,
2013-05-17 10:33:00,61.0,47.0,29.97,NW,315,1.1,-999.0,60,-99.99,,,0.00,Acu-Link.com,2013-05-17 14:33:00,
2013-05-17 10:48:00,61.9,47.9,29.98,NNW,337,0.0,-999.0,60,-99.99,,,0.00,Acu-Link.com,2013-05-17 14:48:00,
2013-05-17 11:03:00,61.5,48.4,29.97,West,270,1.7,-999.0,62,-99.99,,,0.00,Acu-Link.com,2013-05-17 15:03:00,
2013-05-17 11:18:00,61.9,48.3,29.98,NE,45,1.1,-999.0,61,-99.99,,,0.00,Acu-Link.com,2013-05-17 15:18:00,
2013-05-17 11:33:00,62.1,47.6,29.97,WNW,292,2.2,-999.0,59,-99.99,,,0.00,Acu-Link.com,2013-05-17 15:33:00,
2013-05-17 11:49:00,64.6,48.5,29.98,West,270,1.7,-999.0,56,-99.99,,,0.00,Acu-Link.com,2013-05-17 15:49:00,
2013-05-17 12:04:00,66.7,49.5,29.97,NNW,337,2.2,-999.0,54,-99.99,,,0.00,Acu-Link.com,2013-05-17 16:04:00,
2013-05-17 12:19:00,67.3,50.1,29.96,NNE,22,2.2,-999.0,54,-99.99,,,0.00,Acu-Link.com,2013-05-17 16:19:00,
2013-05-17 12:34:00,67.5,49.8,29.96,NE,45,2.2,-999.0,53,-99.99,,,0.00,Acu-Link.com,2013-05-17 16:34:00,
2013-05-17 12:50:00,69.4,49.9,29.97,NNW,337,1.1,-999.0,50,-99.99,,,0.00,Acu-Link.com,2013-05-17 16:50:00,
2013-05-17 13:05:00,71.6,52.0,29.95,ESE,112,2.7,-999.0,50,-99.99,,,0.00,Acu-Link.com,2013-05-17 17:05:00,
2013-05-17 13:20:00,70.0,50.5,29.96,NNE,22,2.7,-999.0,50,-99.99,,,0.00,Acu-Link.com,2013-05-17 17:20:00,
2013-05-17 13:35:00,69.8,50.3,29.96,NE,45,1.7,-999.0,50,-99.99,,,0.00,Acu-Link.com,2013-05-17 17:35:00,
2013-05-17 13:50:00,70.5,49.3,29.96,South,180,0.0,-999.0,47,-99.99,,,0.00,Acu-Link.com,2013-05-17 17:50:00,
2013-05-17 14:05:00,71.2,51.0,29.96,NW,315,4.2,-999.0,49,-99.99,,,0.00,Acu-Link.com,2013-05-17 18:05:00,
2013-05-17 14:20:00,71.4,49.5,29.96,NNW,337,0.0,-999.0,46,-99.99,,,0.00,Acu-Link.com,2013-05-17 18:20:00,
2013-05-17 14:35:00,71.4,49.5,29.96,SSE,157,3.7,-999.0,46,-99.99,,,0.00,Acu-Link.com,2013-05-17 18:35:00,
2013-05-17 14:50:00,73.9,49.3,29.96,NNW,337,2.2,-999.0,42,-99.99,,,0.00,Acu-Link.com,2013-05-17 18:50:00,
2013-05-17 15:06:00,73.9,49.3,29.96,NNW,337,1.7,-999.0,42,-99.99,,,0.00,Acu-Link.com,2013-05-17 19:06:00,
2013-05-17 15:21:00,72.5,50.5,29.96,West,270,0.0,-999.0,46,-99.99,,,0.00,Acu-Link.com,2013-05-17 19:21:00,
2013-05-17 15:36:00,72.5,49.9,29.96,West,270,2.7,-999.0,45,-99.99,,,0.00,Acu-Link.com,2013-05-17 19:36:00,
2013-05-17 15:51:00,72.5,50.5,29.96,SSW,202,0.0,-999.0,46,-99.99,,,0.00,Acu-Link.com,2013-05-17 19:51:00,
2013-05-17 16:06:00,72.3,49.8,29.95,NE,45,3.7,-999.0,45,-99.99,,,0.00,Acu-Link.com,2013-05-17 20:06:00,
2013-05-17 16:21:00,72.9,49.1,29.95,NW,315,1.7,-999.0,43,-99.99,,,0.00,Acu-Link.com,2013-05-17 20:21:00,
2013-05-17 16:36:00,73.4,50.8,29.96,NNW,337,1.7,-999.0,45,-99.99,,,0.00,Acu-Link.com,2013-05-17 20:36:00,
2013-05-17 16:51:00,72.5,49.3,29.96,WNW,292,2.2,-999.0,44,-99.99,,,0.00,Acu-Link.com,2013-05-17 20:51:00,
2013-05-17 17:06:00,72.5,49.3,29.96,NNE,22,0.0,-999.0,44,-99.99,,,0.00,Acu-Link.com,2013-05-17 21:06:00,
2013-05-17 17:22:00,72.1,50.2,29.96,West,270,3.2,-999.0,46,-99.99,,,0.00,Acu-Link.com,2013-05-17 21:22:00,
2013-05-17 17:37:00,72.0,50.1,29.97,NNW,337,1.1,-999.0,46,-99.99,,,0.00,Acu-Link.com,2013-05-17 21:37:00,
2013-05-17 17:52:00,71.6,49.1,29.97,SSW,202,0.0,-999.0,45,-99.99,,,0.00,Acu-Link.com,2013-05-17 21:52:00,
2013-05-17 18:07:00,71.1,48.7,29.97,NNW,337,0.0,-999.0,45,-99.99,,,0.00,Acu-Link.com,2013-05-17 22:07:00,
2013-05-17 18:22:00,72.0,48.9,29.97,NE,45,0.0,-999.0,44,-99.99,,,0.00,Acu-Link.com,2013-05-17 22:22:00,
2013-05-17 18:37:00,73.2,47.4,29.98,WSW,247,1.1,-999.0,40,-99.99,,,0.00,Acu-Link.com,2013-05-17 22:37:00,
2013-05-17 18:52:00,75.0,49.7,29.98,East,90,0.0,-999.0,41,-99.99,,,0.00,Acu-Link.com,2013-05-17 22:52:00,
2013-05-17 19:07:00,74.5,49.2,29.99,East,90,0.0,-999.0,41,-99.99,,,0.00,Acu-Link.com,2013-05-17 23:07:00,
2013-05-17 19:22:00,72.1,49.0,29.98,NNW,337,0.0,-999.0,44,-99.99,,,0.00,Acu-Link.com,2013-05-17 23:22:00,
2013-05-17 19:38:00,69.8,48.7,30.00,NNW,337,0.0,-999.0,47,-99.99,,,0.00,Acu-Link.com,2013-05-17 23:38:00,
2013-05-17 19:53:00,66.7,49.0,30.00,NNW,337,0.0,-999.0,53,-99.99,,,0.00,Acu-Link.com,2013-05-17 23:53:00,
2013-05-17 20:08:00,64.2,50.5,30.01,NNE,22,0.0,-999.0,61,-99.99,,,0.00,Acu-Link.com,2013-05-18 00:08:00,
2013-05-17 20:23:00,62.2,50.3,30.02,NNE,22,0.0,-999.0,65,-99.99,,,0.00,Acu-Link.com,2013-05-18 00:23:00,
2013-05-17 20:38:00,60.3,50.1,30.03,North,0,0.0,-999.0,69,-99.99,,,0.00,Acu-Link.com,2013-05-18 00:38:00,
2013-05-17 20:53:00,58.8,51.6,30.03,NNW,337,0.0,-999.0,77,-99.99,,,0.00,Acu-Link.com,2013-05-18 00:53:00,
2013-05-17 21:08:00,57.6,51.8,30.04,NNW,337,0.0,-999.0,81,-99.99,,,0.00,Acu-Link.com,2013-05-18 01:08:00,
2013-05-17 21:23:00,56.5,55.9,30.05,WNW,292,0.0,-999.0,98,-99.99,,,0.00,Acu-Link.com,2013-05-18 01:23:00,
2013-05-17 21:38:00,55.8,55.2,30.05,North,0,0.0,-999.0,98,-99.99,,,0.00,Acu-Link.com,2013-05-18 01:38:00,
2013-05-17 21:54:00,55.2,54.6,30.05,East,90,0.0,-999.0,98,-99.99,,,0.00,Acu-Link.com,2013-05-18 01:54:00,
2013-05-17 22:09:00,54.3,53.7,30.06,NNE,22,0.0,-999.0,98,-99.99,,,0.00,Acu-Link.com,2013-05-18 02:09:00,
2013-05-17 22:24:00,54.0,53.4,30.06,NNE,22,0.0,-999.0,98,-99.99,,,0.00,Acu-Link.com,2013-05-18 02:24:00,
2013-05-17 22:39:00,53.2,52.6,30.06,North,0,0.0,-999.0,98,-99.99,,,0.00,Acu-Link.com,2013-05-18 02:39:00,
2013-05-17 22:54:00,53.1,52.5,30.07,NNW,337,0.0,-999.0,98,-99.99,,,0.00,Acu-Link.com,2013-05-18 02:54:00,
2013-05-17 23:09:00,52.5,52.0,30.08,NNE,22,0.0,-999.0,98,-99.99,,,0.00,Acu-Link.com,2013-05-18 03:09:00,
2013-05-17 23:24:00,52.2,51.7,30.07,North,0,0.0,-999.0,98,-99.99,,,0.00,Acu-Link.com,2013-05-18 03:24:00,
2013-05-17 23:39:00,51.8,51.3,30.08,North,0,0.0,-999.0,98,-99.99,,,0.00,Acu-Link.com,2013-05-18 03:39:00,
2013-05-17 23:54:00,51.4,50.9,30.08,North,0,0.0,-999.0,98,-99.99,,,0.00,Acu-Link.com,2013-05-18 03:54:00,